Location: La Pernelle
(49.6188°N, 1.2999°W)
Time: 09:33:40
(UTC+00:00)

Cosmos 1980 - Pass Details

Date: 12 June 2021
Orbit: 839 x 848 km, 71.0° (Epoch: 26 July)

Event Time Altitude Azimuth Distance (km) Brightness Sun altitude
Exits shadow 23:48:41 26° 153° (SSE) 1,621 4.6 -17.1°
Maximum altitude 23:51:07 38° 107° (ESE) 1,283 4.5 -17.1°
Drops below altitude 10° 23:56:18 10° 42° (NE) 2,481 6.8 -17.1°
Sets 23:58:54 0° 34° (NE) 3,421 7.8 -17.2°
